Main page
METAR-TAF:

METAR-TAF

Airports :

RAF Topcliffe

Topcliffe, England

latitude: 54-12N, longitude: 001-23W, elevation: 28 m

Current weather observation

The report was made 1 hour and 7 minutes ago, at 18:50 UTC
Wind 10 kt from the West/Southwest
Temperature 16°C
Humidity 68%
Pressure 1001 hPa
Visibility 10 km or more

METAR: EGXZ 281850Z AUTO 24010KT 9999 SCT070/// 16/10 Q1001

Time: 20:57 (19:57 UTC)


TAF: missing

Weather observations and forecasts of more than 4000 airports (METAR and TAF reports).

The available stations are represented by yellow and red dots on the map.

Hover mouse over dot to see the name of the station.

Then click to see weather observations and forecasts.

To change the map : click on the green buttons with a black cross to zoom in, on the green button with a dash to zoom out, or on the green arrows for adjacent maps.


METAR-TAF: